Weather in Sosnovyy Bor

Russia / Saint-Petersburg and Leningrad Oblast     60°21′27″N   29°06′37″E
temp.,
°C
wind,
m/s
gust,
m/s
humid.,
%
clouds,
%
prec.,
mm/h
press.,
hPa
HPBL,
m
6 march, sat
sat600:00−8nw24920 0.0 101691
03:00−9wnw23920 0.0 101754
06:00−8w23920 0.0 101548
09:00−7sw378811 0.0 1014183
12:00−4sw7127975 0.0 1010700
15:00−4ssw10169187 0.5 1004900
18:00−2sw101796100 3.0 9971062
21:000wsw121896100 7.7 992927
7 march, sun
sun700:00−2nw61376100 0.9 990721
03:00−7w348870 0.9 99165
06:00−6nw7129167 1.8 990973
09:00−9nw377967 2.0 989193
12:00−7nnw457467 0.1 990711
15:00−6nnw467181 0.4 993804
18:00−7n5108294 0.1 996653
21:00−10nnw4118862 0.1 999356
8 march, mon
mon800:00−9n5119199 0.1 1002531
03:00−11n6128999 0.1 1005590
06:00−12n5109098 0.1 1008430
09:00−14n5108898 0.1 1011376
12:00−11n488244 0.0 1013468
15:00−9n477754 0.0 1015713
18:00−11n478249 0.0 1016430
21:00−15n369131 0.0 1018147
9 march, tue
tue900:00−17nne22910 0.0 101926
03:00−17nne12910 0.0 101920
06:00−17ese129230 0.0 101926
09:00−15ese359065 0.0 1019210
12:00−12ese5785100 0.0 1019436
15:00−12ese6982100 0.0 1019470
18:00−13e5107660 0.0 1019382
21:00−17e5118335 0.0 1021261
10 march, wed
wed1000:00−17e511840 0.0 1022263
03:00−18e510850 0.0 1024228
06:00−18e49840 0.0 1024194
09:00−17ese59792 0.0 1025204
12:00−13ese477135 0.0 1025269
15:00−10ese476317 0.0 1025463
18:00−11ese48740 0.0 1023338
21:00−13ese410850 0.0 1022246